Regional Weather Roundup
Issued by NWS

Home | Current Version | Previous Version | Graphics & Text | Print | Product List | Glossary On
Versions: 1 2 3 4 5 6 7 8 9 10 11 12 13 14 15 16 17 18 19 20 21 22 23 24 25 26 27 28 29 30 31 32 33 34 35 36 37 38 39 40 41 42 43 44 45 46 47 48 49 50
000
ASUS45 KTFX 102210
RWRMT
MONTANA REGIONAL WEATHER ROUNDUP
NATIONAL WEATHER SERVICE GREAT FALLS MT
300 PM MST SUN DEC 10 2017

NOTE: "FAIR" INDICATES FEW OR NO CLOUDS BELOW 12000 FEET WITH NO
SIGNIFICANT WEATHER AND/OR OBSTRUCTIONS TO VISIBILITY.

MTZ001>007-043-102300-
WEST OF THE DIVIDE

CITY           SKY/WX    TMP DP  RH WIND       PRES   REMARKS
KALISPELL      CLOUDY    26  23  88 SW3       30.60S
MISSOULA       CLOUDY    20  17  88 CALM      30.60S FOG
BUTTE          FAIR      32  13  45 NW5       30.48F
MULLAN PASS    FAIR      37  32  82 NW6       30.47F
ANACONDA         N/A     30  18  59 CALM      30.45F
DEER LODGE       N/A     27  19  74 NE6       30.52S WCI  20
EUREKA           N/A    N/A N/A N/A MISG      30.64S
HAMILTON         N/A     19  18  93 N3        30.55S
LIBBY            N/A     34  21  60 CALM      30.59S
PLAINS           N/A     31  18  58 CALM      30.58R
RONAN            N/A     27  21  77 S2        30.58R
$$

MTZ008-052>055-102300-
SOUTHWEST MONTANA

CITY           SKY/WX    TMP DP  RH WIND       PRES   REMARKS
BOZEMAN        FAIR      30  17  58 SE3       30.48F
DILLON         FAIR      35  19  52 S5        30.48F
W YELLOWSTONE  FAIR      23  12  63 CALM      30.56F
ENNIS          CLOUDY    37  25  60 S7        30.51F
THREE FORKS      N/A     26  18  72 CALM      30.41F
TWIN BRIDGES     N/A     38  14  37 CALM      30.42F
$$

MTZ009-010-012-014-046-048-049-054-102300-
EAST SLOPES AND CENTRAL MONTANA

CITY           SKY/WX    TMP DP  RH WIND       PRES   REMARKS
CUT BANK       FAIR      53  14  21 W20       30.27S
GREAT FALLS    FAIR      51   9  18 SW21G28   30.29F
MALMSTROM AFB  FAIR      52  10  18 SW20      30.29F
HELENA         FAIR      28  21  75 NE10G23   30.45F WCI  19
BOWMANS CRNR   FAIR      44  10  25 S16       30.31F
CHOTEAU          N/A     57  14  18 W10       30.30R
FAIRFIELD      FAIR      56   9  15 W13       30.29S
POWER          FAIR      56  11  16 W12       30.28S
RAYNESFORD     FAIR      55   8  15 SW22G28   30.28F
ULM            FAIR      51   9  18 SW22G28   30.31F
$$

MTZ011-013-016-021-045-047-050-051-102300-
NORTH CENTRAL MONTANA

CITY           SKY/WX    TMP DP  RH WIND       PRES   REMARKS
HAVRE          FAIR      58  14  17 W17       30.19R
LEWISTOWN      FAIR      50  17  27 W17G25    30.25S
N BAR RANCH    FAIR      54   5  14 NW29G41   30.24S
CHINOOK          N/A     57  14  18 W15       30.16R
DENTON         FAIR      56   7  14 NW26G38   30.20F
GEYSER         FAIR      55   7  14 W17G28    30.27R
GRASS RANGE    FAIR      53  15  22 W22       30.20S
STANFORD       FAIR      55   6  13 NW26G38   30.27R
WINIFRED       FAIR      55   8  15 W15G28    30.22S
$$

MTZ017>020-022>027-061-062-102300-
NORTHEAST MONTANA

CITY           SKY/WX    TMP DP  RH WIND       PRES   REMARKS
GLASGOW        FAIR      44  15  31 CALM      30.10F
GLENDIVE       FAIR      50  14  23 NW23      30.08S
JORDAN           N/A     55   8  15 W15       30.13S
SIDNEY         FAIR      50  17  27 W21G28    30.06R
WOLF POINT     FAIR      51  15  23 W7        30.09S
MALTA          CLEAR     55  10  16 W13       30.08F
PLENTYWOOD       N/A     45  27  49 CALM      30.03F
POPLAR           N/A     48  14  25 W10       30.09S
$$

MTZ028>42-056>058-102300-
SOUTHCENTRAL AND SOUTHEAST MONTANA

CITY           SKY/WX    TMP DP  RH WIND       PRES   REMARKS
BAKER          FAIR      47  23  38 W9        30.12S
BILLINGS       PTSUNNY   50  18  28 SW17      30.26S
LIVINGSTON     FAIR      47   9  21 W28G37    30.38R
MILES CITY     FAIR      55  16  21 W10G25    30.14S
BIG TIMBER     SUNNY     50   9  18 W24G32    30.34R
FORSYTH          N/A     57  12  17 W13       30.17S
HARLOWTON      FAIR      49  10  21 W31       30.31R
LAUREL           N/A     48  16  27 SW15G22   30.29R
ROUNDUP          N/A     56   8  14 MISG      30.11S
$$

REGIONAL REPORTS...DAKOTAS

CITY           SKY/WX    TMP DP  RH WIND       PRES   REMARKS
WILLISTON      FAIR      45  22  40 W14       30.05R
MINOT          CLOUDY    44  25  47 W16       29.95F
DICKINSON      FAIR      47  21  35 W15       30.02F
BEACH          FAIR      45  18  33 W13       30.10S
CROSBY         FAIR      39  28  65 W12       30.01S WCI  32
TIOGA          MOCLDY    39  28  65 W13       30.02S WCI  32
BISMARCK       FAIR      47  27  45 W12       30.01F
GRAND FORKS    MOCLDY    26  21  81 S5        30.01F
FARGO          CLOUDY    27  21  78 CALM      30.03F
BUFFALO SD       N/A     54  19  25 W17       30.04F
RAPID CITY     FAIR      63   4   9 N15       30.14F
$$

REGIONAL REPORTS...WYOMING/IDAHO/WASHINGTON

CITY           SKY/WX    TMP DP  RH WIND       PRES   REMARKS
GILLETTE       FAIR      52  14  22 W9        30.25S
SHERIDAN       FAIR      58  12  16 W10       30.25F
BUFFALO WY     FAIR      58   3  11 CALM      30.29S
CODY           FAIR      39  18  42 NE8       30.37R
YELLOWSTONE LA   N/A     26  22  84 CALM      30.57R
IDAHO FALLS    FAIR      27  20  75 CALM      30.60F
SALMON         CLOUDY    18  14  84 VRB3      30.73F
BOISE          CLOUDY    26  19  74 CALM      30.68F
SPOKANE        CLOUDY    29  25  85 N7        30.60F WCI  22
$$

REGIONAL REPORTS...ALBERTA

CITY           SKY/WX    TMP DP  RH WIND       PRES   REMARKS
EDMONTON       CLEAR     45  25  45 W18G32    30.14R
CALGARY        PTCLDY    55  12  18 W20G32    30.22R
LETHBRIDGE     MOCLDY    55  18  22 W20G28    30.24R
MEDICINE HAT   MOCLDY    52  21  30 W8        30.16F
$$

REGIONAL REPORTS...SASKATCHEWAN

CITY           SKY/WX    TMP DP  RH WIND       PRES   REMARKS
SWIFT CURRENT  CLEAR     41  21  45 SW18      30.03S
REGINA         MOCLDY    36  28  75 W9        29.93F WCI  29
SASKATOON      PTCLDY    39  30  70 W17G23    29.89F WCI  30
$$



USA.gov is the U.S. government's official web portal to all federal, state and local government web resources and services.